Temperature
23 23 23 24 25 26 27 28 28 29 31 30 29 30 31 32 32 32 32 31 31 30 30 29 29 28 26 25 24 22 21 20 19 19 18 18 18 18 18 18 18 18 18 17
23 23 25 26 26 26 26 26 28 30 31 30 30 30 31 32 32 32 32 31 30 29 29 28 28 27 26 24 23 22 21 20 19 18 18 18 18 18 18 18 18 17 17 16
23 24 25 25 26 26 26 26 27 29 30 30 29 29 30 31 32 32 31 30 29 28 27 27 27 26 26 24 23 22 21 20 19 18 18 17 17 17 17 17 17 16 16 15
24 25 26 25 25 25 25 27 27 28 28 28 28 26 28 30 31 31 31 29 27 26 25 25 25 25 25 24 23 22 21 20 19 18 18 18 17 17 17 16 16 15 15 15
24 25 25 25 25 26 26 27 27 27 27 27 28 27 28 30 30 30 29 26 23 22 21 21 21 22 23 23 23 22 21 19 19 18 18 17 17 16 16 15 15 14 14 14
25 26 26 26 26 26 26 26 27 27 26 25 26 26 27 29 30 29 25 21 20 19 18 18 19 19 20 21 21 21 20 19 18 18 17 17 16 16 15 14 14 13 13 13
24 25 26 26 25 26 26 25 24 24 24 24 27 26 27 27 26 24 21 18 17 16 16 16 17 17 18 19 19 19 19 18 17 17 16 16 16 15 14 14 13 12 12 12
23 23 25 26 25 25 25 25 23 23 24 25 27 26 27 25 22 20 18 17 16 15 15 15 15 15 16 16 17 17 17 16 16 16 15 15 15 14 13 13 12 12 11 11
23 24 26 26 26 26 25 25 26 25 25 25 27 27 24 23 21 20 18 16 15 14 14 14 14 14 15 15 15 15 15 15 15 15 14 14 14 13 13 12 11 11 11 10
23 23 25 26 26 26 26 26 25 24 23 23 26 26 24 22 20 19 17 15 14 13 13 13 13 14 14 14 14 14 14 14 14 14 13 13 12 12 12 11 11 10 10 9
24 23 24 25 25 25 25 25 24 25 25 24 24 24 24 23 20 18 16 14 13 12 13 13 13 13 13 13 13 13 13 13 13 12 12 12 11 11 11 10 10 9 9 9
23 23 22 23 25 26 26 25 24 23 23 24 24 22 23 21 19 17 14 13 12 12 12 12 12 12 12 12 12 12 12 12 12 11 11 11 10 10 10 9 9 8 8 8
21 21 21 21 22 24 24 24 24 24 24 23 23 21 21 19 17 15 13 12 11 11 11 11 11 11 11 11 11 11 11 11 11 11 10 10 10 9 9 8 8 8 7 7
21 21 20 17 17 18 20 21 22 22 23 23 23 21 19 17 15 14 12 11 11 11 10 10 10 10 10 10 10 10 10 10 10 10 9 9 9 8 8 8 7 7 7 7
21 21 21 20 20 20 20 19 19 20 21 21 21 19 18 16 14 13 11 11 10 10 10 9 9 9 9 9 9 9 9 9 9 9 8 8 7 7 7 7 7 6 6 6
21 20 20 20 21 21 20 20 19 19 19 19 18 16 15 13 12 11 11 10 10 9 9 9 9 8 8 8 8 8 8 8 8 8 7 7 7 6 6 6 6 5 5 5
20 20 20 20 21 21 20 19 19 19 19 18 16 14 13 12 11 10 10 9 9 9 8 8 8 8 8 8 8 8 7 7 7 7 7 6 6 6 5 5 5 5 4 4
19 19 19 20 20 18 18 19 20 19 17 17 15 13 11 10 9 9 9 9 8 8 8 8 8 8 7 7 7 7 7 7 6 6 6 5 5 5 5 4 4 4 4 3
20 19 19 19 19 17 17 17 18 18 16 16 14 12 10 10 9 8 8 8 8 8 7 7 7 7 7 7 6 6 6 6 5 5 5 5 5 4 4 4 4 3 3 3
21 20 19 18 17 16 15 17 18 18 14 14 13 13 12 12 11 8 7 7 7 7 7 7 7 6 6 6 6 6 5 5 5 5 4 4 4 4 4 3 3 3 3 3
19 19 18 17 17 15 16 18 18 15 12 13 12 12 11 10 9 7 7 7 7 6 6 6 6 6 6 6 5 5 5 5 5 4 4 4 4 4 3 3 3 3 3 3
18 18 17 17 15 14 16 16 15 13 12 12 11 10 9 8 7 7 6 6 6 6 6 6 6 6 5 5 5 5 5 4 4 4 4 4 4 4 3 3 3 3 3 3
18 17 17 16 15 15 15 14 13 13 12 12 11 10 9 8 7 6 6 6 6 6 6 6 5 5 5 5 5 5 5 4 4 4 4 4 4 3 3 3 3 3 3 3
19 18 18 16 15 15 14 14 13 13 12 11 11 10 9 8 7 6 6 6 6 6 5 5 5 5 5 5 5 5 5 5 4 4 4 4 4 3 3 3 3 3 3 3
18 18 17 16 16 14 13 13 13 12 12 11 10 9 8 7 7 6 6 6 6 6 6 6 6 5 5 5 5 5 5 5 4 4 4 4 4 4 4 4 3 3 3 3
18 17 16 14 14 14 13 12 12 12 11 11 10 9 8 7 7 7 6 6 6 6 6 6 6 6 6 6 5 5 5 5 5 5 5 5 5 4 4 4 4 3 3 2
Wind_Speed
15 14 16 17 19 20 20 17 18 18 19 21 20 19 17 11 11 12 12 11 11 10 7 4 6 12 15 16 16 15 14 13 12 11 11 10 8 8 7 6 10 11 11 10
15 18 17 17 17 18 21 20 19 15 17 17 17 18 17 14 13 10 8 6 4 3 3 4 2 5 12 15 16 15 13 14 12 10 8 8 9 7 7 6 6 8 9 9
20 16 18 17 17 17 18 18 17 14 13 12 10 15 17 17 14 10 8 4 2 4 4 4 3 1 6 12 15 16 14 14 13 12 9 10 8 6 5 6 5 7 9 9
19 19 15 17 17 16 15 16 17 17 12 10 12 14 18 19 16 13 10 6 6 8 8 9 8 6 2 5 12 14 15 14 13 13 13 14 10 8 6 6 6 7 8 8
17 18 16 14 15 15 14 14 16 17 15 13 13 15 16 19 20 17 9 7 11 13 13 14 14 13 10 6 6 12 14 14 13 12 14 12 10 8 8 9 10 9 7 9
17 16 16 15 13 13 13 15 16 15 14 18 17 16 16 12 14 11 11 14 15 15 15 15 15 14 14 13 10 11 13 12 11 11 11 10 11 11 12 11 10 8 7 7
14 15 15 13 13 14 13 13 10 12 14 17 17 17 13 3 14 17 18 17 16 16 15 15 15 15 15 15 14 13 13 12 11 10 9 9 11 12 12 11 10 9 8 8
14 15 16 14 14 12 14 16 13 11 13 15 21 20 10 14 19 20 19 17 16 15 14 14 13 13 13 14 14 14 14 14 12 11 10 10 11 9 10 11 10 9 8 9
5 10 15 16 14 15 14 16 17 17 19 16 13 12 11 17 18 18 18 17 15 14 14 13 13 13 13 14 14 14 15 14 13 14 14 13 12 12 12 12 11 10 9 9
6 7 8 14 13 16 16 14 10 13 14 16 14 7 11 18 17 16 16 15 14 14 13 13 12 12 12 13 14 14 15 15 14 14 13 12 13 13 11 11 11 10 9 8
5 5 4 7 12 14 15 16 14 12 14 15 14 2 5 15 17 16 15 14 14 13 12 12 11 11 12 12 13 14 15 15 15 14 14 13 12 12 13 12 11 10 10 8
6 5 6 9 10 11 13 15 14 12 12 13 14 1 11 17 17 17 16 14 14 13 12 12 11 11 12 13 13 14 14 15 14 14 14 14 13 13 13 12 11 9 9 8
8 5 6 7 7 6 7 7 10 10 10 11 13 2 12 16 17 16 16 14 13 13 13 12 11 12 12 12 13 13 14 14 14 14 14 13 13 12 12 11 10 9 9 8
4 6 5 3 5 6 12 14 11 9 9 11 12 4 10 13 14 14 14 13 12 12 12 12 12 11 11 11 12 13 13 13 13 14 13 13 12 11 11 10 10 9 8 8
6 8 8 2 6 6 4 9 12 11 9 7 4 5 8 11 13 13 13 13 13 13 13 12 11 10 10 11 11 12 12 12 12 13 13 12 11 11 10 10 9 8 7 6
6 8 10 9 7 6 3 2 5 5 7 8 10 9 11 13 13 12 12 13 13 13 13 12 11 11 10 10 11 11 11 11 12 12 12 12 11 10 9 8 7 6 6 5
8 8 9 9 8 6 1 6 6 8 11 10 8 7 13 14 13 10 11 12 13 13 12 12 11 11 10 10 10 11 11 11 11 11 11 10 10 9 7 6 6 5 5 6
6 8 6 8 7 3 7 10 10 8 13 12 13 14 16 16 14 14 12 12 12 12 11 10 10 9 9 9 9 10 10 10 10 10 9 8 8 7 5 5 5 5 5 5
3 5 6 5 5 2 7 10 10 7 9 11 13 15 16 17 16 13 12 13 12 11 10 9 8 8 8 8 8 10 10 9 9 9 7 6 6 5 4 4 4 4 4 3
2 3 5 7 6 3 6 8 9 5 5 10 11 11 10 7 6 5 7 11 11 10 8 8 7 8 7 7 8 9 9 8 8 7 5 4 4 4 4 4 4 3 2 2
7 5 5 5 3 5 10 12 8 3 4 8 11 11 10 8 8 10 9 10 10 9 9 8 8 7 7 8 8 9 8 7 6 5 4 4 4 4 5 4 3 2 2 2
6 6 6 5 4 4 12 9 8 7 9 10 12 13 15 15 14 12 11 10 10 9 9 9 8 8 7 7 8 8 7 6 5 5 5 4 2 3 5 3 1 1 2 1
3 5 5 5 4 6 9 10 9 10 9 9 11 14 16 15 14 13 11 10 9 9 9 8 9 9 7 7 7 7 6 5 5 4 4 4 4 4 2 1 1 0 1 2
4 3 2 3 6 8 10 11 10 9 8 9 12 14 15 15 14 13 11 10 9 9 9 8 8 8 7 6 5 5 5 4 4 4 4 4 4 3 2 1 1 2 3 4
5 4 3 3 6 9 10 8 8 8 8 10 12 14 15 15 14 13 11 10 9 8 7 7 7 7 7 5 4 4 3 3 3 3 3 3 4 3 2 2 3 3 6 5
5 6 4 5 6 5 6 6 6 5 7 10 13 15 15 14 14 13 11 10 9 9 8 7 7 6 6 5 5 4 3 3 1 1 1 2 2 2 2 3 4 8 8 10
Wind_Direction
204 215 219 222 227 245 256 254 243 233 218 205 219 232 240 219 208 211 203 202 191 196 187 159 156 158 157 154 157 163 167 159 157 162 164 160 148 132 122 121 128 132 138 138
208 221 228 230 233 238 255 268 266 240 217 203 213 230 240 237 210 214 218 195 165 160 118 100 126 149 161 158 160 162 165 163 164 163 159 149 136 133 129 120 114 117 119 118
224 220 222 235 239 237 244 256 265 258 215 192 218 236 245 246 231 202 204 208 133 83 46 37 24 108 162 164 166 172 169 164 164 151 137 129 121 123 122 120 111 103 109 116
230 236 221 222 238 243 245 252 267 278 252 206 202 235 237 242 237 219 204 186 90 57 39 31 21 25 31 170 170 163 161 157 152 147 149 151 156 155 142 127 113 107 109 116
224 227 229 227 231 239 247 252 253 265 274 264 230 232 241 230 230 222 187 113 80 62 47 36 28 22 22 38 139 149 147 146 149 150 153 154 151 133 122 116 112 101 92 95
233 224 228 232 234 240 241 249 246 241 252 248 245 249 249 245 235 199 123 90 74 63 55 44 34 32 34 42 66 105 122 126 133 137 143 144 136 129 126 122 118 107 99 93
229 231 224 230 229 227 227 234 228 220 231 242 236 239 243 76 69 97 101 88 76 68 59 50 42 39 40 47 61 77 95 100 103 110 117 120 122 124 124 120 116 115 111 106
212 222 216 215 227 225 218 233 237 231 228 236 226 226 212 118 99 96 96 93 83 73 66 58 51 47 49 54 62 72 81 85 89 94 96 100 106 108 111 113 117 115 112 110
258 233 205 203 214 233 224 228 248 265 280 283 261 203 131 120 113 109 105 98 89 80 72 64 57 54 56 60 65 73 79 81 82 85 87 87 91 97 104 105 105 106 109 115
296 292 213 193 203 220 238 237 235 249 265 274 276 205 168 152 134 120 111 104 98 89 79 71 66 64 65 68 70 72 77 80 80 81 85 92 95 101 105 105 105 109 109 108
288 294 270 208 208 218 218 237 249 253 254 260 269 290 61 144 134 123 113 107 102 94 85 78 75 72 72 73 75 76 76 79 80 82 86 90 93 95 96 98 100 101 102 104
344 307 289 272 260 250 232 228 239 250 259 267 273 24 92 115 119 118 113 106 99 94 88 84 82 80 77 77 78 79 81 82 83 85 87 88 89 91 94 95 95 97 98 97
346 316 299 299 295 296 284 255 257 257 261 270 273 115 101 110 115 114 112 107 102 97 91 86 82 80 80 82 84 86 88 90 92 92 91 90 91 93 94 95 93 90 87 84
306 303 308 273 267 296 313 321 320 288 257 258 268 159 125 116 113 112 112 108 104 99 94 89 85 83 82 83 84 88 90 93 96 96 95 93 93 94 94 91 87 85 83 81
338 305 318 273 204 211 273 320 331 325 313 298 352 79 118 113 112 111 110 109 103 98 93 89 86 83 82 83 84 86 89 91 95 96 95 94 92 90 89 87 85 82 78 79
336 316 314 295 246 224 240 336 331 339 9 22 52 60 77 93 96 102 105 107 102 97 92 87 83 79 76 77 83 84 86 88 91 93 94 94 93 91 89 87 84 79 71 61
336 335 316 300 301 288 81 44 33 31 29 35 49 91 92 82 79 90 101 102 101 98 93 86 80 74 71 70 76 82 82 86 89 92 94 95 95 92 88 90 87 79 71 65
336 331 308 299 312 316 58 25 19 34 49 54 80 94 92 90 77 65 76 90 92 93 92 89 87 84 81 81 82 85 87 90 93 94 96 97 99 97 94 88 79 69 65 66
5 329 311 310 316 78 42 14 358 2 50 56 94 106 111 110 85 60 60 77 85 88 91 92 92 93 96 100 102 101 99 99 101 101 101 103 105 106 102 93 85 74 71 63
321 292 298 317 323 16 24 347 324 321 63 53 88 107 119 110 87 83 81 88 91 95 98 100 101 100 99 99 104 105 105 105 105 107 107 107 103 99 90 78 73 76 68 51
333 316 322 329 333 66 5 357 351 20 67 69 83 88 86 81 103 125 117 106 105 103 104 102 98 96 97 103 107 109 112 114 121 125 123 117 115 110 95 83 73 56 43 45
335 345 1 0 4 30 10 26 47 85 101 93 94 97 101 106 114 119 117 113 111 108 106 105 102 100 102 110 116 120 127 139 144 134 124 116 116 117 105 103 93 36 350 318
23 21 355 33 69 86 61 71 86 96 98 101 111 118 122 122 123 122 120 117 114 112 111 112 114 116 124 135 138 139 151 157 150 142 135 121 99 86 108 168 200 206 3 343
92 72 4 79 105 97 86 83 83 90 103 112 121 128 129 126 127 126 123 120 118 118 123 128 130 134 143 157 159 156 163 168 158 150 151 153 155 173 181 247 340 45 23 16
337 335 354 71 96 92 76 72 77 90 108 121 126 129 129 129 129 129 127 127 126 128 131 130 127 127 131 138 141 147 150 152 149 158 177 186 186 192 204 181 52 55 68 65
45 35 25 60 52 77 85 69 67 93 119 128 129 128 130 131 132 131 129 128 128 127 123 120 117 112 112 114 113 109 112 111 105 159 208 234 216 216 245 168 127 69 103 108
Height
1477 1479 1477 1474 1472 1470 1464 1461 1459 1452 1444 1452 1456 1455 1451 1448 1451 1453 1456 1460 1464 1468 1471 1474 1478 1481 1486 1491 1495 1500 1505 1509 1512 1516 1519 1523 1526 1529 1533 1536 1538 1540 1542 1543
1473 1474 1469 1467 1465 1466 1466 1465 1456 1445 1439 1446 1453 1454 1449 1448 1450 1452 1455 1458 1463 1467 1469 1473 1477 1480 1483 1487 1492 1497 1502 1506 1509 1513 1517 1520 1522 1525 1529 1532 1535 1537 1538 1539
1468 1464 1463 1464 1464 1465 1464 1465 1457 1449 1440 1444 1454 1460 1452 1447 1447 1451 1455 1460 1464 1467 1471 1474 1476 1479 1481 1485 1489 1493 1498 1502 1507 1510 1513 1516 1519 1522 1526 1528 1530 1532 1534 1536
1462 1458 1457 1462 1464 1462 1466 1459 1456 1453 1451 1455 1461 1474 1459 1450 1447 1449 1454 1459 1464 1469 1472 1474 1477 1479 1481 1483 1486 1489 1494 1499 1503 1506 1509 1512 1516 1519 1522 1525 1527 1529 1531 1533
1457 1455 1456 1460 1459 1459 1461 1456 1457 1458 1458 1460 1457 1468 1459 1446 1448 1448 1453 1461 1467 1470 1473 1476 1478 1479 1480 1481 1483 1486 1491 1495 1499 1504 1507 1510 1514 1517 1520 1522 1525 1527 1529 1531
1450 1450 1451 1453 1454 1455 1456 1459 1458 1459 1463 1475 1464 1468 1463 1446 1441 1445 1456 1465 1469 1472 1475 1478 1480 1481 1481 1482 1483 1486 1489 1494 1497 1501 1505 1509 1512 1515 1517 1520 1522 1525 1527 1530
1454 1448 1448 1450 1454 1455 1457 1467 1476 1479 1479 1473 1458 1462 1457 1448 1445 1450 1460 1468 1472 1474 1477 1480 1482 1484 1484 1484 1485 1487 1490 1493 1497 1501 1505 1508 1511 1513 1516 1518 1521 1524 1527 1529
1458 1456 1446 1447 1452 1455 1457 1462 1476 1481 1476 1464 1451 1453 1447 1448 1454 1460 1466 1471 1475 1478 1481 1484 1486 1487 1488 1488 1488 1490 1492 1495 1498 1501 1504 1507 1510 1513 1516 1519 1522 1525 1527 1530
1454 1450 1438 1442 1446 1450 1456 1458 1455 1464 1462 1463 1446 1440 1451 1451 1458 1464 1469 1474 1478 1481 1484 1487 1489 1490 1491 1492 1492 1493 1495 1497 1500 1502 1505 1508 1511 1514 1517 1520 1523 1526 1528 1531
1450 1452 1439 1439 1443 1446 1449 1451 1459 1466 1475 1473 1452 1444 1450 1454 1461 1467 1472 1478 1482 1484 1487 1490 1492 1494 1495 1495 1496 1497 1498 1500 1502 1505 1507 1510 1513 1516 1519 1522 1525 1527 1530 1532
1447 1454 1448 1442 1446 1447 1450 1453 1455 1455 1456 1466 1465 1460 1444 1451 1461 1470 1477 1482 1485 1487 1490 1493 1495 1497 1498 1499 1499 1500 1502 1503 1505 1508 1511 1513 1516 1519 1521 1524 1527 1530 1532 1535
1450 1452 1457 1450 1440 1438 1440 1446 1452 1463 1461 1454 1457 1468 1450 1456 1466 1474 1481 1486 1489 1491 1493 1496 1498 1500 1501 1502 1503 1504 1506 1508 1510 1512 1515 1517 1520 1522 1525 1527 1530 1533 1535 1537
1460 1460 1465 1464 1457 1449 1447 1446 1448 1450 1454 1458 1461 1470 1461 1465 1472 1479 1485 1489 1493 1495 1497 1499 1501 1503 1504 1506 1507 1509 1510 1512 1515 1517 1519 1521 1524 1526 1528 1530 1533 1535 1536 1538
1463 1463 1471 1486 1484 1475 1467 1459 1455 1456 1458 1460 1457 1465 1468 1473 1478 1484 1489 1494 1497 1499 1501 1503 1504 1506 1508 1509 1511 1513 1515 1517 1519 1521 1523 1525 1528 1530 1531 1533 1535 1536 1538 1539
1464 1464 1462 1466 1465 1466 1467 1467 1464 1465 1462 1462 1462 1466 1472 1477 1483 1489 1493 1497 1501 1503 1505 1507 1508 1510 1511 1513 1515 1517 1519 1521 1523 1525 1527 1529 1531 1533 1534 1535 1537 1538 1539 1540
1465 1467 1465 1465 1461 1460 1465 1467 1468 1468 1469 1469 1470 1479 1482 1485 1489 1493 1497 1501 1504 1507 1509 1511 1513 1514 1516 1517 1519 1521 1523 1525 1527 1528 1530 1532 1533 1535 1536 1537 1538 1539 1539 1540
1467 1470 1470 1467 1457 1458 1468 1472 1471 1471 1471 1473 1480 1487 1489 1493 1496 1499 1502 1504 1507 1510 1513 1515 1516 1518 1519 1521 1523 1524 1526 1528 1529 1531 1532 1533 1535 1537 1538 1539 1539 1539 1540 1540
1473 1473 1472 1467 1467 1481 1481 1472 1471 1473 1477 1480 1485 1492 1496 1500 1504 1506 1507 1508 1511 1513 1515 1518 1519 1521 1523 1524 1526 1527 1528 1530 1531 1532 1534 1535 1536 1537 1539 1540 1540 1540 1540 1540
1473 1475 1475 1473 1475 1481 1484 1481 1478 1478 1485 1488 1491 1497 1502 1504 1507 1512 1513 1514 1515 1517 1519 1521 1522 1524 1525 1527 1528 1529 1530 1532 1534 1535 1536 1537 1538 1539 1540 1541 1541 1540 1540 1541
1471 1472 1476 1476 1485 1492 1494 1484 1480 1480 1494 1496 1496 1500 1503 1503 1509 1519 1519 1518 1519 1520 1522 1524 1525 1527 1528 1529 1530 1531 1532 1534 1536 1537 1538 1539 1540 1541 1541 1541 1541 1541 1541 1541
1476 1474 1478 1482 1486 1493 1491 1484 1481 1493 1505 1502 1502 1503 1504 1507 1512 1518 1520 1521 1522 1523 1525 1526 1528 1529 1530 1531 1532 1533 1535 1536 1538 1539 1540 1541 1542 1542 1542 1542 1542 1542 1542 1541
1482 1482 1483 1485 1492 1503 1494 1489 1495 1503 1504 1504 1505 1506 1508 1511 1515 1519 1522 1523 1524 1526 1527 1529 1530 1531 1532 1534 1535 1536 1537 1538 1540 1541 1542 1543 1543 1543 1543 1542 1542 1542 1542 1541
1483 1488 1487 1492 1499 1499 1498 1499 1502 1503 1505 1507 1508 1509 1511 1515 1518 1521 1524 1526 1527 1529 1530 1531 1532 1534 1535 1537 1538 1538 1539 1540 1542 1542 1543 1544 1544 1544 1544 1544 1543 1543 1542 1541
1483 1487 1487 1492 1496 1498 1500 1502 1504 1505 1507 1508 1510 1512 1514 1517 1520 1523 1526 1528 1530 1531 1533 1534 1536 1537 1538 1539 1540 1541 1542 1542 1543 1543 1544 1544 1544 1544 1544 1544 1544 1543 1542 1541
1487 1487 1488 1492 1497 1500 1503 1505 1506 1507 1509 1510 1512 1514 1517 1519 1523 1525 1528 1530 1533 1534 1536 1537 1539 1540 1540 1541 1542 1543 1543 1543 1543 1543 1544 1544 1544 1544 1543 1543 1543 1542 1541 1540
1487 1491 1493 1499 1502 1503 1506 1507 1508 1508 1510 1511 1513 1516 1519 1522 1525 1528 1530 1533 1535 1537 1539 1540 1541 1542 1543 1544 1544 1544 1545 1544 1544 1544 1544 1544 1544 1543 1543 1542 1541 1540 1540 1539